KIND Airport Diagram

We have created a template for each of the higher traffic airports in the vZID airspace. They include KCMH, KCRW, KCVG, KDAY, KIND, KLEX and KSDF. You wil find usefull information including the airport diagram, weather, and specific airport procedures.

KIND Weather

[Source: ADDS]
METAR
KIND 230154Z 08011KT 8SM BKN065 BKN090 OVC200 03/M02 A3029 RMK AO2 SLP264 T00331022 =
KIND 230214Z 2302/2406 08009KT P6SM OVC080 FM230900 09007KT P6SM OVC025 FM231300 10008KT P6SM VCSH OVC015 FM231700 13008KT P6SM VCSH OVC008 FM240200 17014KT 6SM SHRA BKN010 WS015/20040KT FM240500 21016G25KT P6SM BKN050 WS010/20025KT
TAF
KIND 230214Z 2302/2406 08009KT P6SM OVC080 FM230900 09007KT P6SM OVC025 FM231300 10008KT P6SM VCSH OVC015 FM231700 13008KT P6SM VCSH OVC008 FM240200 17014KT 6SM SHRA BKN010 WS015/20040KT FM240500 21016G25KT P6SM BKN050 WS010/20025KT =

KIND Operations

 Calm Wind Configuration is runways 23L/R, up to and including 10kts.

Runway 23L typically departs South and East, Runway 23R typically departs North and West.

FedEx pilots should expect runway 23L or 5R.

Contraflow (noise abatement) procedures from 2200L to 0600L, landing Runway 5R, departing Runway 23R, weather permitted.

New Scenery is available at FlightSim.com and Blueprint Simulations. On initial contact, arriving aircraft should notify the the controller if their scenery has the Midfield Terminal.

FBOs: Signature is near taxiway D and Millionaire is near taxiway A, both are North of taxiway M.

 

JSN Epic template designed by JoomlaShine.com